This is the latest recevied weather packets stored in our database for station/object VE9LJW. If no packets are shown the sender has not sent any weather packets the latest 10 day(s).
| Time | Temp. | Humidity | Pressure | Rain* | Wind** | Luminosity | Snow |
|---|---|---|---|---|---|---|---|
| 1777933606 | 15° C | 76% | 1001.7 hPa | 0 mm | - | 76 W/m² | - |
| 1777933302 | 15° C | 76% | 1001.7 hPa | 0 mm | - | 76 W/m² | - |
| 1777933000 | 15° C | 76% | 1001.5 hPa | 0 mm | - | 82 W/m² | - |
| 1777932697 | 15° C | 75% | 1001.8 hPa | 0 mm | - | 75 W/m² | - |
| 1777932393 | 15° C | 75% | 1001.5 hPa | 0 mm | - | 82 W/m² | - |
| 1777932091 | 15° C | 75% | 1001.5 hPa | 0 mm | - | 93 W/m² | - |
| 1777931786 | 15° C | 75% | 1001.3 hPa | 0 mm | - | 126 W/m² | - |
| 1777931479 | 15° C | 75% | 1001.5 hPa | 0 mm | - | 57 W/m² | - |
| 1777931175 | 15° C | 74% | 1001.3 hPa | 0 mm | - | 89 W/m² | - |
| 1777930871 | 15° C | 75% | 1001.3 hPa | 0 mm | - | 97 W/m² | - |
| 1777930568 | 15° C | 75% | 1001.5 hPa | 0 mm | - | 99 W/m² | - |
| 1777930265 | 15° C | 75% | 1001.4 hPa | 0 mm | - | 93 W/m² | - |
| 1777929960 | 15° C | 74% | 1001.3 hPa | 0 mm | - | 133 W/m² | - |
| 1777929658 | 15.56° C | 73% | 1001.2 hPa | 0 mm | - | 105 W/m² | - |
| 1777929355 | 15° C | 73% | 1001.2 hPa | 0 mm | - | 177 W/m² | - |
| 1777929052 | 15° C | 74% | 1001.3 hPa | 0 mm | - | 136 W/m² | - |
| 1777928749 | 15° C | 74% | 1001 hPa | 0 mm | - | 157 W/m² | - |
| 1777928445 | 14.44° C | 74% | 1001.1 hPa | 0 mm | - | 252 W/m² | - |
| 1777928143 | 15° C | 74% | 1001.2 hPa | 0 mm | - | 124 W/m² | - |
| 1777927841 | 15° C | 74% | 1001.3 hPa | 0 mm | - | 175 W/m² | - |
| 1777927539 | 15° C | 74% | 1001.2 hPa | 0 mm | - | 193 W/m² | - |
| 1777927238 | 15° C | 73% | 1001.3 hPa | 0 mm | - | 177 W/m² | - |
| 1777926935 | 14.44° C | 74% | 1001 hPa | 0 mm | - | 224 W/m² | - |
| 1777926633 | 13.89° C | 75% | 1001 hPa | 0 mm | - | 158 W/m² | - |
| 1777926328 | 14.44° C | 75% | 1001.2 hPa | 0 mm | - | 86 W/m² | - |
* Rain latest hour (hover to see other rain measurements)
** Current wind speed in m/s (hover to see current wind gust speed)